SAS2303 ENGM-ENKB

Flight info

Callsign SAS2303
Flight time 0h 45m
Altitude 34000
Route EVTOG DCT PIGED DCT VEPUL
Aircraft E195/M-SDE3GILORVW/S

Departure

Time 2026-05-04 14:11
Airport Oslo-Gardermoen International Airport (ENGM)

Arrival

Time 2026-05-04 14:56
Airport Kristiansund Airport, Kvernberget (ENKB)
Time Latitude Longitude Altitude Speed Heading
2026-05-04 13:37 60.19571 11.09349 684 ft 0 kts 196°
2026-05-04 14:02 60.19589 11.09360 682 ft 4 kts 196°
2026-05-04 14:03 60.19614 11.09374 682 ft 2 kts 196°
2026-05-04 14:03 60.19615 11.09374 682 ft 3 kts 196°
2026-05-04 14:06 60.19611 11.09357 683 ft 2 kts 248°
2026-05-04 14:07 60.19627 11.09340 678 ft 5 kts 352°
2026-05-04 14:07 60.19684 11.09321 679 ft 11 kts 335°
2026-05-04 14:07 60.19716 11.09154 682 ft 16 kts 287°
2026-05-04 14:07 60.19751 11.08912 679 ft 20 kts 285°
2026-05-04 14:08 60.19770 11.08700 677 ft 11 kts 245°
2026-05-04 14:08 60.19703 11.08631 677 ft 13 kts 195°
2026-05-04 14:08 60.19591 11.08565 674 ft 21 kts 196°
2026-05-04 14:08 60.19452 11.08486 675 ft 21 kts 197°
2026-05-04 14:09 60.19260 11.08376 673 ft 9 kts 199°
2026-05-04 14:09 60.19231 11.08250 671 ft 14 kts 281°
2026-05-04 14:10 60.19285 11.07875 670 ft 6 kts 290°
2026-05-04 14:10 60.19328 11.07853 671 ft 9 kts 12°
2026-05-04 14:10 60.19354 11.07868 671 ft 6 kts 15°
2026-05-04 14:10 60.19465 11.07931 671 ft 42 kts 15°
2026-05-04 14:11 60.19974 11.08222 674 ft 109 kts 15°
2026-05-04 14:11 60.22097 11.09435 1119 ft 189 kts 12°
2026-05-04 14:11 60.23376 11.10119 1785 ft 196 kts 10°
2026-05-04 14:12 60.24754 11.10886 2218 ft 214 kts 11°
2026-05-04 14:12 60.26257 11.11355 2670 ft 223 kts 353°
2026-05-04 14:12 60.29348 11.10412 3945 ft 227 kts 344°
2026-05-04 14:13 60.30914 11.09881 4548 ft 229 kts 346°
2026-05-04 14:13 60.32501 11.09400 5125 ft 231 kts 346°
2026-05-04 14:13 60.34073 11.08789 5681 ft 229 kts 336°
2026-05-04 14:13 60.35433 11.07254 6183 ft 223 kts 314°
2026-05-04 14:14 60.36558 11.05116 6661 ft 221 kts 305°
2026-05-04 14:14 60.38049 10.99748 7493 ft 226 kts 309°
2026-05-04 14:14 60.39077 10.97711 7923 ft 228 kts 314°
2026-05-04 14:15 60.41561 10.93594 8802 ft 234 kts 317°
2026-05-04 14:15 60.44201 10.89709 9755 ft 236 kts 320°
2026-05-04 14:16 60.46884 10.85873 10652 ft 237 kts 319°
2026-05-04 14:16 60.48232 10.83942 11114 ft 237 kts 319°
2026-05-04 14:17 60.50939 10.80091 12067 ft 238 kts 319°
2026-05-04 14:17 60.52294 10.78152 12553 ft 239 kts 319°
2026-05-04 14:17 60.55000 10.74282 13497 ft 240 kts 318°
2026-05-04 14:18 60.56383 10.72303 13969 ft 240 kts 317°
2026-05-04 14:18 60.59082 10.68433 14917 ft 239 kts 316°
2026-05-04 14:19 60.61788 10.64543 15866 ft 238 kts 315°
2026-05-04 14:19 60.63142 10.62597 16316 ft 238 kts 314°
2026-05-04 14:19 60.64496 10.60650 16788 ft 238 kts 314°
2026-05-04 14:19 60.65846 10.58701 17248 ft 238 kts 313°
2026-05-04 14:20 60.67200 10.56752 17669 ft 239 kts 313°
2026-05-04 14:20 60.68556 10.54796 18053 ft 239 kts 313°
2026-05-04 14:20 60.69917 10.52834 18377 ft 240 kts 313°
2026-05-04 14:21 60.72653 10.48897 19072 ft 241 kts 313°
2026-05-04 14:21 60.74029 10.46916 19416 ft 242 kts 312°
2026-05-04 14:21 60.75409 10.44924 19764 ft 243 kts 312°
2026-05-04 14:21 60.76796 10.42919 20102 ft 246 kts 312°
2026-05-04 14:22 60.78213 10.40854 20365 ft 258 kts 312°
2026-05-04 14:22 60.79740 10.38615 20347 ft 282 kts 313°
2026-05-04 14:22 60.81404 10.36222 20400 ft 302 kts 314°
2026-05-04 14:22 60.83180 10.33676 20524 ft 319 kts 315°
2026-05-04 14:23 60.86858 10.28396 21631 ft 325 kts 314°
2026-05-04 14:23 60.88702 10.25713 22314 ft 325 kts 314°
2026-05-04 14:23 60.90544 10.23017 23032 ft 325 kts 313°
2026-05-04 14:24 60.92388 10.20314 23678 ft 325 kts 313°
2026-05-04 14:24 60.94207 10.17652 24296 ft 325 kts 314°
2026-05-04 14:24 60.96051 10.14942 24863 ft 327 kts 314°
2026-05-04 14:24 60.97914 10.12203 25415 ft 331 kts 314°
2026-05-04 14:25 60.99794 10.09444 25937 ft 334 kts 314°
2026-05-04 14:25 61.03612 10.03838 26911 ft 340 kts 314°
2026-05-04 14:25 61.05550 10.00996 27359 ft 343 kts 314°
2026-05-04 14:26 61.07505 9.98126 27789 ft 346 kts 315°
2026-05-04 14:26 61.09475 9.95227 28213 ft 350 kts 315°
2026-05-04 14:26 61.11465 9.92303 28662 ft 352 kts 315°
2026-05-04 14:26 61.13474 9.89345 29088 ft 356 kts 315°
2026-05-04 14:27 61.15496 9.86361 29508 ft 359 kts 315°
2026-05-04 14:27 61.17538 9.83345 29871 ft 363 kts 315°
2026-05-04 14:27 61.19609 9.80283 30145 ft 367 kts 315°
2026-05-04 14:27 61.21701 9.77188 30423 ft 372 kts 316°
2026-05-04 14:28 61.23821 9.74056 30669 ft 376 kts 316°
2026-05-04 14:28 61.25966 9.70882 30943 ft 380 kts 316°
2026-05-04 14:28 61.28128 9.67671 31192 ft 384 kts 316°
2026-05-04 14:28 61.30311 9.64420 31443 ft 388 kts 316°
2026-05-04 14:29 61.34739 9.57823 31921 ft 395 kts 316°
2026-05-04 14:29 61.39232 9.51133 32537 ft 398 kts 317°
2026-05-04 14:30 61.41487 9.47767 32835 ft 399 kts 317°
2026-05-04 14:30 61.43744 9.44382 33107 ft 400 kts 317°
2026-05-04 14:30 61.48273 9.37564 33608 ft 402 kts 317°
2026-05-04 14:31 61.50540 9.34154 33796 ft 404 kts 317°
2026-05-04 14:31 61.55186 9.27134 33817 ft 419 kts 317°
2026-05-04 14:32 61.59963 9.19925 33717 ft 424 kts 317°
2026-05-04 14:32 61.64759 9.12674 33730 ft 425 kts 317°
2026-05-04 14:33 61.69532 9.05415 33733 ft 426 kts 317°
2026-05-04 14:33 61.74334 8.98070 33745 ft 427 kts 317°
2026-05-04 14:34 61.79131 8.90707 33739 ft 427 kts 317°
2026-05-04 14:34 61.83906 8.83362 33319 ft 414 kts 317°
2026-05-04 14:34 61.86194 8.79840 32951 ft 402 kts 317°
2026-05-04 14:35 61.88435 8.76364 32397 ft 396 kts 317°
2026-05-04 14:35 61.90636 8.72943 31851 ft 389 kts 317°
2026-05-04 14:35 61.92797 8.69580 31369 ft 382 kts 316°
2026-05-04 14:35 61.94921 8.66272 30861 ft 375 kts 316°
2026-05-04 14:36 61.97134 8.63338 30385 ft 374 kts 322°
2026-05-04 14:36 61.99381 8.60608 29859 ft 370 kts 322°
2026-05-04 14:36 62.01608 8.57943 29372 ft 363 kts 322°
2026-05-04 14:36 62.03802 8.55347 28885 ft 361 kts 322°
2026-05-04 14:37 62.06008 8.52736 28474 ft 366 kts 322°
2026-05-04 14:37 62.08262 8.50065 27948 ft 374 kts 323°
2026-05-04 14:37 62.10549 8.47365 27408 ft 376 kts 323°
2026-05-04 14:37 62.12832 8.44678 26958 ft 374 kts 323°
2026-05-04 14:38 62.15105 8.41997 26430 ft 371 kts 323°
2026-05-04 14:38 62.17346 8.39343 25962 ft 366 kts 323°
2026-05-04 14:38 62.19561 8.36710 25471 ft 362 kts 323°
2026-05-04 14:38 62.21760 8.34114 24998 ft 360 kts 323°
2026-05-04 14:39 62.23959 8.31599 24526 ft 357 kts 324°
2026-05-04 14:39 62.26144 8.29105 24025 ft 354 kts 324°
2026-05-04 14:39 62.28307 8.26629 23593 ft 350 kts 324°
2026-05-04 14:40 62.32564 8.21721 22653 ft 343 kts 324°
2026-05-04 14:40 62.34665 8.19293 22204 ft 343 kts 324°
2026-05-04 14:40 62.36767 8.16853 21747 ft 344 kts 324°
2026-05-04 14:40 62.38861 8.14409 21263 ft 341 kts 324°
2026-05-04 14:41 62.40950 8.11994 20889 ft 340 kts 325°
2026-05-04 14:41 62.43034 8.09563 20356 ft 340 kts 325°
2026-05-04 14:41 62.47155 8.04752 19475 ft 335 kts 326°
2026-05-04 14:42 62.51231 7.99985 18620 ft 332 kts 327°
2026-05-04 14:42 62.53266 7.97615 18146 ft 333 kts 329°
2026-05-04 14:42 62.55462 7.95994 17714 ft 337 kts 344°
2026-05-04 14:43 62.57827 7.95346 16668 ft 353 kts 358°
2026-05-04 14:43 62.60210 7.96556 16274 ft 350 kts 16°
2026-05-04 14:43 62.62436 7.98626 15765 ft 345 kts 20°
2026-05-04 14:43 62.64593 8.00774 15302 ft 336 kts 20°
2026-05-04 14:44 62.66722 8.02781 14902 ft 333 kts 18°
2026-05-04 14:44 62.68858 8.04713 14443 ft 332 kts 18°
2026-05-04 14:44 62.70976 8.06615 13986 ft 326 kts 18°
2026-05-04 14:44 62.73053 8.08472 13559 ft 321 kts 18°
2026-05-04 14:45 62.75102 8.10302 13128 ft 315 kts 18°
2026-05-04 14:45 62.77109 8.12092 12744 ft 309 kts 18°
2026-05-04 14:45 62.79089 8.13859 12307 ft 306 kts 17°
2026-05-04 14:45 62.81046 8.15597 11919 ft 301 kts 17°
2026-05-04 14:46 62.82969 8.17302 11512 ft 297 kts 17°
2026-05-04 14:46 62.84872 8.18985 11154 ft 293 kts 17°
2026-05-04 14:46 62.86763 8.20672 10714 ft 293 kts 17°
2026-05-04 14:46 62.88636 8.22335 10370 ft 289 kts 17°
2026-05-04 14:47 62.90498 8.23984 9974 ft 289 kts 17°
2026-05-04 14:47 62.92360 8.25639 9577 ft 288 kts 17°
2026-05-04 14:47 62.94215 8.27283 9168 ft 285 kts 17°
2026-05-04 14:47 62.96046 8.28900 8863 ft 282 kts 16°
2026-05-04 14:48 62.97879 8.30511 8427 ft 284 kts 16°
2026-05-04 14:48 62.99705 8.32127 8098 ft 283 kts 16°
2026-05-04 14:48 63.01509 8.33725 7680 ft 284 kts 16°
2026-05-04 14:48 63.03355 8.35358 7319 ft 280 kts 16°
2026-05-04 14:49 63.05155 8.36949 6962 ft 278 kts 15°
2026-05-04 14:49 63.06935 8.38515 6569 ft 279 kts 15°
2026-05-04 14:49 63.08753 8.40070 6196 ft 273 kts 10°
2026-05-04 14:49 63.10542 8.40232 5862 ft 254 kts 339°
2026-05-04 14:50 63.12038 8.38478 5601 ft 239 kts 316°
2026-05-04 14:50 63.13284 8.36084 5244 ft 237 kts 315°
2026-05-04 14:50 63.14565 8.33833 4938 ft 234 kts 319°
2026-05-04 14:50 63.15024 8.33095 4834 ft 233 kts 319°
2026-05-04 14:51 63.15037 8.33074 4834 ft 233 kts 319°
2026-05-04 14:51 63.16098 8.30457 4537 ft 226 kts 291°
2026-05-04 14:51 63.16261 8.27106 4236 ft 221 kts 261°
2026-05-04 14:52 63.15701 8.23949 3926 ft 221 kts 249°
2026-05-04 14:52 63.15161 8.20800 3619 ft 216 kts 256°
2026-05-04 14:52 63.14776 8.17618 3285 ft 212 kts 258°
2026-05-04 14:52 63.14423 8.14515 3057 ft 202 kts 259°
2026-05-04 14:53 63.14129 8.11518 2703 ft 197 kts 260°
2026-05-04 14:53 63.13945 8.09580 2504 ft 191 kts 260°
2026-05-04 14:53 63.13667 8.06818 2205 ft 178 kts 260°
2026-05-04 14:53 63.13397 8.04251 1929 ft 166 kts 260°
2026-05-04 14:54 63.13138 8.01834 1668 ft 157 kts 259°
2026-05-04 14:54 63.12907 7.99635 1451 ft 143 kts 259°
2026-05-04 14:54 63.12684 7.97562 1212 ft 133 kts 259°
2026-05-04 14:54 63.12482 7.95589 1023 ft 131 kts 259°
2026-05-04 14:55 63.12282 7.93612 821 ft 132 kts 257°
2026-05-04 14:55 63.12085 7.91617 640 ft 134 kts 261°
2026-05-04 14:55 63.11989 7.89604 572 ft 131 kts 264°
2026-05-04 14:55 63.11916 7.87555 480 ft 137 kts 258°
2026-05-04 14:56 63.11658 7.85539 278 ft 137 kts 249°
2026-05-04 14:56 63.11359 7.83636 217 ft 117 kts 252°
2026-05-04 14:56 63.11158 7.82270 214 ft 70 kts 251°
2026-05-04 14:56 63.11078 7.81757 209 ft 12 kts 252°
2026-05-04 14:57 63.11068 7.81618 204 ft 6 kts 269°
2026-05-04 14:57 63.11051 7.81623 213 ft 5 kts 78°
2026-05-04 14:57 63.11072 7.81729 206 ft 13 kts 66°
2026-05-04 14:57 63.11117 7.82009 211 ft 25 kts 71°
2026-05-04 14:58 63.11172 7.82369 216 ft 20 kts 71°
2026-05-04 14:58 63.11210 7.82618 213 ft 14 kts 70°
2026-05-04 14:58 63.11257 7.82738 217 ft 9 kts 356°
2026-05-04 14:58 63.11305 7.82696 212 ft 4 kts 316°
2026-05-04 14:59 63.11321 7.82642 210 ft 5 kts 312°
2026-05-04 14:59 63.11342 7.82622 210 ft 1 kts 341°
2026-05-04 14:59 63.11352 7.82614 211 ft 0 kts 341°